GW4678 Weather Reports


time (UTC)temp
C
wind
direction
speed
KPH
gust
KPH
rain 1hr
cm
rain 24hr
cm
rain mn
cm
humidity
%
barometer
mb
20260505035511 17 348 0.0 3.2 0.00 0.00 0.00 64 1010.3
20260505035012 18 338 0.0 3.2 0.00 0.00 0.00 63 1010.3
20260505034528 18 338 0.0 4.8 0.00 0.00 0.00 62 1010.2
20260505034004 18 349 0.0 6.4 0.00 0.00 0.00 61 1010.1
20260505033503 18 336 1.6 6.4 0.00 0.00 0.00 61 1010.1
20260505033017 18 345 0.0 3.2 0.00 0.00 0.00 61 1010.1
20260505032506 18 348 0.0 1.6 0.00 0.00 0.00 61 1010.1
20260505032008 19 348 0.0 1.6 0.00 0.00 0.00 60 1010.0
20260505031517 19 336 0.0 0.0 0.00 0.00 0.00 60 1009.9
20260505031005 19 347 0.0 3.2 0.00 0.00 0.00 59 1009.9
20260505030508 19 347 0.0 3.2 0.00 0.00 0.00 58 1009.9
20260505030023 20 347 0.0 3.2 0.00 0.00 0.00 57 1009.9
20260505025508 20 347 0.0 3.2 0.00 0.00 0.00 56 1009.7
20260505025008 20 324 0.0 3.2 0.00 0.00 0.00 55 1009.7
20260505024543 20 253 0.0 3.2 0.00 0.00 0.00 58 1009.6
20260505024010 20 315 0.0 3.2 0.00 0.00 0.00 57 1009.5
20260505023509 20 242 0.0 3.2 0.00 0.00 0.00 57 1009.4
20260505023038 20 237 0.0 3.2 0.00 0.00 0.00 56 1009.5
20260505022503 20 255 0.0 3.2 0.00 0.00 0.00 55 1009.5
20260505022008 21 248 0.0 3.2 0.00 0.00 0.00 55 1009.4
20260505021518 21 227 0.0 3.2 0.00 0.00 0.00 55 1009.4
20260505021008 21 254 1.6 4.8 0.00 0.00 0.00 54 1009.4
20260505020504 21 181 0.0 4.8 0.00 0.00 0.00 54 1009.3
20260505020022 21 208 0.0 3.2 0.00 0.00 0.00 53 1009.3
20260505015508 21 169 0.0 4.8 0.00 0.00 0.00 53 1009.4
20260505015008 21 252 0.0 6.4 0.00 0.00 0.00 53 1009.4
20260505014535 21 203 1.6 6.4 0.00 0.00 0.00 52 1009.4
20260505014008 22 207 1.6 6.4 0.00 0.00 0.00 51 1009.4
20260505013510 22 228 1.6 6.4 0.00 0.00 0.00 50 1009.3
20260505013027 22 160 1.6 6.4 0.00 0.00 0.00 50 1009.4
20260505012508 23 146 1.6 6.4 0.00 0.00 0.00 49 1009.4
20260505012008 23 189 3.2 6.4 0.00 0.00 0.00 47 1009.4
20260505011527 23 220 1.6 6.4 0.00 0.00 0.00 45 1009.4
20260505011006 24 265 1.6 6.4 0.00 0.00 0.00 42 1009.5
20260505010507 24 354 1.6 6.4 0.00 0.00 0.00 41 1009.5
20260505010020 24 359 0.0 4.8 0.00 0.00 0.00 44 1009.5
20260505005508 24 245 1.6 4.8 0.00 0.00 0.00 45 1009.5
20260505005008 25 356 1.6 8.0 0.00 0.00 0.00 44 1009.5
20260505004530 25 254 1.6 8.0 0.00 0.00 0.00 44 1009.5
20260505004009 25 195 1.6 8.0 0.00 0.00 0.00 44 1009.5
20260505003507 25 224 0.0 8.0 0.00 0.00 0.00 44 1009.5
20260505003027 25 267 1.6 8.0 0.00 0.00 0.00 43 1009.6
20260505002511 25 186 1.6 6.4 0.00 0.00 0.00 44 1009.4
20260505002012 25 203 1.6 6.4 0.00 0.00 0.00 44 1009.5
20260505001528 25 300 1.6 6.4 0.00 0.00 0.00 44 1009.6
20260505001008 25 259 1.6 9.7 0.00 0.00 0.00 44 1009.5
20260505000508 25 186 3.2 9.7 0.00 0.00 0.00 43 1009.5
20260505000017 25 266 1.6 6.4 0.00 0.00 0.00 42 1009.6
20260504235507 25 358 1.6 6.4 0.00 0.00 0.00 42 1009.6
20260504235008 25 236 1.6 6.4 0.00 0.00 0.00 44 1009.6
20260504234523 25 259 1.6 6.4 0.00 0.00 0.00 42 1009.7
20260504234011 25 218 3.2 6.4 0.00 0.00 0.00 41 1009.8
20260504233507 25 304 3.2 6.4 0.00 0.00 0.00 42 1009.7
20260504233028 25 330 1.6 8.0 0.00 0.00 0.00 41 1009.7
20260504232508 25 151 1.6 8.0 0.00 0.00 0.00 41 1009.8
20260504232010 25 21 1.6 6.4 0.00 0.00 0.00 40 1009.8
20260504231529 25 253 3.2 6.4 0.00 0.00 0.00 40 1009.9
20260504231010 25 235 1.6 6.4 0.00 0.00 0.00 38 1009.9
20260504230508 26 284 1.6 8.0 0.00 0.00 0.00 40 1009.9
20260504230030 25 257 1.6 8.0 0.00 0.00 0.00 42 1009.9
20260504225507 25 357 3.2 8.0 0.00 0.00 0.00 39 1009.9
20260504225008 25 319 3.2 8.0 0.00 0.00 0.00 39 1009.9
20260504224525 25 178 0.0 6.4 0.00 0.00 0.00 42 1010.0
20260504224006 25 44 3.2 8.0 0.00 0.00 0.00 40 1009.9
20260504223512 25 331 0.0 8.0 0.00 0.00 0.00 42 1010.0
20260504223025 25 248 1.6 6.4 0.00 0.00 0.00 42 1010.0
20260504222509 25 1 1.6 6.4 0.00 0.00 0.00 41 1010.1
20260504222010 25 298 1.6 8.0 0.00 0.00 0.00 38 1010.2
20260504221527 25 242 3.2 9.7 0.00 0.00 0.00 41 1010.2
20260504221009 26 352 1.6 9.7 0.00 0.00 0.00 40 1010.3
20260504220513 25 211 1.6 8.0 0.00 0.00 0.00 41 1010.4
20260504220028 25 321 3.2 9.7 0.00 0.00 0.00 41 1010.4
20260504215511 25 81 1.6 9.7 0.00 0.00 0.00 41 1010.5
20260504215011 26 326 1.6 9.7 0.00 0.00 0.00 39 1010.5
20260504214530 25 359 1.6 8.0 0.00 0.00 0.00 39 1010.5
20260504214009 25 349 1.6 8.0 0.00 0.00 0.00 38 1010.6
20260504213514 25 359 1.6 6.4 0.00 0.00 0.00 37 1010.6
20260504213023 25 189 1.6 6.4 0.00 0.00 0.00 40 1010.6
20260504212507 25 359 1.6 6.4 0.00 0.00 0.00 38 1010.7
20260504212013 25 333 3.2 6.4 0.00 0.00 0.00 40 1010.7
20260504211527 25 46 1.6 8.0 0.00 0.00 0.00 42 1010.7
20260504211008 25 344 4.8 8.0 0.00 0.00 0.00 42 1010.8
20260504210509 25 327 3.2 8.0 0.00 0.00 0.00 42 1010.8
20260504210036 25 295 1.6 9.7 0.00 0.00 0.00 45 1010.8
20260504205509 24 250 3.2 9.7 0.00 0.00 0.00 43 1010.8
20260504205009 24 235 3.2 9.7 0.00 0.00 0.00 42 1010.8
20260504204532 24 202 1.6 9.7 0.00 0.00 0.00 44 1010.8
20260504204009 24 51 1.6 8.0 0.00 0.00 0.00 43 1010.8
20260504203509 24 342 1.6 8.0 0.00 0.00 0.00 46 1010.9
20260504203031 24 162 4.8 8.0 0.00 0.00 0.00 46 1010.9
20260504202510 23 233 3.2 8.0 0.00 0.00 0.00 47 1010.9
20260504202008 23 297 1.6 8.0 0.00 0.00 0.00 46 1010.9
20260504201525 23 23 0.0 9.7 0.00 0.00 0.00 46 1010.9
20260504201006 23 275 4.8 11.3 0.00 0.00 0.00 45 1011.0
20260504200509 23 350 3.2 11.3 0.00 0.00 0.00 47 1011.0
20260504200010 23 250 1.6 6.4 0.00 0.00 0.00 50 1011.0
20260504195502 23 13 0.0 4.8 0.00 0.00 0.00 48 1011.0
20260504195003 23 347 0.0 6.4 0.00 0.00 0.00 49 1011.0
20260504194515 22 219 1.6 6.4 0.00 0.00 0.00 47 1011.0
20260504194007 22 352 1.6 8.0 0.00 0.00 0.00 47 1011.0
20260504193506 22 188 3.2 8.0 0.00 0.00 0.00 48 1011.0
20260504193018 22 220 1.6 6.4 0.00 0.00 0.00 51 1011.0
20260504192508 22 188 1.6 8.0 0.00 0.00 0.00 52 1011.0
20260504192006 22 244 3.2 6.4 0.00 0.00 0.00 51 1010.9
20260504191522 22 138 1.6 6.4 0.00 0.00 0.00 50 1011.0
20260504191006 22 238 1.6 6.4 0.00 0.00 0.00 50 1011.0
20260504190513 21 174 1.6 8.0 0.00 0.00 0.00 50 1011.0
20260504190026 21 210 1.6 8.0 0.00 0.00 0.00 51 1011.0
20260504185508 21 202 1.6 8.0 0.00 0.00 0.00 50 1011.1
20260504185002 22 276 3.2 8.0 0.00 0.00 0.00 50 1011.1
20260504184510 21 188 1.6 8.0 0.00 0.00 0.00 49 1011.1
20260504184003 22 250 3.2 8.0 0.00 0.00 0.00 48 1011.1
20260504183506 22 255 3.2 8.0 0.00 0.00 0.00 47 1011.0
20260504183019 22 351 1.6 8.0 0.00 0.00 0.00 48 1011.0
20260504182508 22 248 1.6 8.0 0.00 0.00 0.00 47 1011.0
20260504182008 21 352 1.6 8.0 0.00 0.00 0.00 50 1011.0
20260504181521 21 197 1.6 9.7 0.00 0.00 0.00 46 1011.0
20260504181008 21 357 3.2 8.0 0.00 0.00 0.00 49 1011.0
20260504180509 21 1 1.6 8.0 0.00 0.00 0.00 52 1010.9
20260504180025 21 174 1.6 8.0 0.00 0.00 0.00 52 1010.9
20260504175511 21 172 1.6 6.4 0.00 0.00 0.00 52 1010.9
20260504175009 21 194 0.0 6.4 0.00 0.00 0.00 52 1010.9
20260504174528 20 179 1.6 6.4 0.00 0.00 0.00 52 1010.8
20260504174009 20 279 0.0 6.4 0.00 0.00 0.00 54 1010.8
20260504173504 20 264 3.2 6.4 0.00 0.00 0.00 50 1010.8
20260504173018 20 209 1.6 6.4 0.00 0.00 0.00 52 1010.8
20260504172503 20 233 1.6 6.4 0.00 0.00 0.00 57 1010.8
20260504172007 20 242 1.6 3.2 0.00 0.00 0.00 55 1010.8
20260504171520 20 17 0.0 3.2 0.00 0.00 0.00 57 1010.8
20260504171007 20 266 0.0 4.8 0.00 0.00 0.00 59 1010.8
20260504170514 20 221 1.6 6.4 0.00 0.00 0.00 63 1010.9
20260504151007 14 321 0.0 0.0 0.00 0.00 0.00 78 1010.7
20260504150508 14 321 0.0 0.0 0.00 0.00 0.00 79 1010.6
20260504141008 12 111 0.0 0.0 0.00 0.00 0.00 85 1010.2
20260504140510 11 110 0.0 0.0 0.00 0.00 0.00 86 1010.2
20260504130509 10 124 0.0 3.2 0.00 0.00 0.00 87 1009.9
20260504110503 11 273 0.0 0.0 0.00 0.00 0.00 81 1009.7
20260504100507 11 97 0.0 0.0 0.00 0.00 0.00 80 1009.9
20260504082003 13 97 0.0 0.0 0.00 0.00 0.00 73 1009.6
20260504081504 13 97 0.0 0.0 0.00 0.00 0.00 71 1009.7
20260504081002 13 97 0.0 0.0 0.00 0.00 0.00 71 1009.8
20260504080503 13 97 0.0 1.6 0.00 0.00 0.00 72 1009.7
20260504050508 16 70 0.0 3.2 0.00 0.00 0.00 62 1009.7
20260504050018 16 70 0.0 3.2 0.00 0.00 0.00 63 1009.9
20260504045507 16 70 0.0 0.0 0.00 0.00 0.00 62 1009.9
20260504045007 16 70 0.0 0.0 0.00 0.00 0.00 62 1009.8
20260504044524 17 70 0.0 3.2 0.00 0.00 0.00 62 1009.9
20260504044006 17 70 0.0 3.2 0.00 0.00 0.00 62 1009.8
20260504043503 17 70 0.0 3.2 0.00 0.00 0.00 61 1009.7
20260504043012 17 70 0.0 3.2 0.00 0.00 0.00 60 1009.7
20260504042503 17 70 0.0 3.2 0.00 0.00 0.00 60 1009.7
20260504042003 17 70 0.0 3.2 0.00 0.00 0.00 59 1009.7
20260504041533 17 70 0.0 0.0 0.00 0.00 0.00 58 1009.7
20260504041003 17 70 0.0 3.2 0.00 0.00 0.00 57 1009.6
20260504040505 18 70 0.0 3.2 0.00 0.00 0.00 55 1009.5
20260504040020 18 70 0.0 3.2 0.00 0.00 0.00 55 1009.4